Nashua, NH

12:56 PM EDT on June 22, 2017 (GMT -0400)
Boire

Weather History for KASH - November, 2011

Change the Weather History Date:

Wednesday, November 23, 2011

  Actual Average Record
Temperature  
Mean Temperature 36 °F -  
Max Temperature 39 °F 45 °F 69 °F (1979)
Min Temperature 32 °F 25 °F 7 °F (1972)
Degree Days  
Heating Degree Days 28    
Moisture  
Dew Point 34 °F    
Average Humidity 91    
Maximum Humidity 100    
Minimum Humidity 76    
Precipitation  
Precipitation 1.35 in - - ()
Sea Level Pressure  
Sea Level Pressure 29.87 in    
Wind  
Wind Speed 7 mph (North)    
Max Wind Speed 14 mph    
Max Gust Speed -    
Visibility 4 miles    
Events Rain    
Averages and records for this station are not official NWS values.
T = Trace of Precipitation, MM = Missing Value Source: NWS Daily Summary

Daily Weather History Graph

Daily Weather History Graph

Search for Another Location

Airport or City:

Trip Planner

Search our weather history database for the weather conditions in past years. The results will help you decide how hot, cold, wet, or windy it might be!

Date:

Astronomy

Nov. 23, 2011 Rise Set
Actual Time 6:47 AM EST 4:17 PM EST
Civil Twilight 6:16 AM EST 4:48 PM EST
Nautical Twilight 5:41 AM EST 5:22 PM EST
Astronomical Twilight 5:07 AM EST 5:56 PM EST
Moon 4:46 AM EST (11/23) 2:56 PM EST (11/23)
Length of Visible Light 10h 31m
Length of Day
9h 29m
Waning Crescent, 4% of the Moon is Illuminated
Nov 23
Waning Crescent
Nov 25
New
Dec 2
First Quarter
Dec 10
Full
Dec 17
Last Quarter

Hourly Weather History & Observations

Time (EST) Temp. Windchill Dew Point Humidity Pressure Visibility Wind Dir Wind Speed Gust Speed Precip Events Conditions
12:14 AM 37.4 °F - 35.6 °F 93% 30.21 in 1.8 mi Calm Calm - 0.04 in Rain Rain
12:20 AM 37.4 °F - 35.6 °F 93% 30.20 in 1.0 mi Calm Calm - 0.06 in Rain Rain
12:28 AM 37.4 °F 34.9 °F 35.6 °F 93% 30.19 in 1.5 mi Variable 3.5 mph - 0.08 in Rain Rain
12:37 AM 39.2 °F 35.0 °F 37.4 °F 93% 30.19 in 3.0 mi ESE 5.8 mph - 0.10 in Rain Rain
12:51 AM 38.8 °F 35.4 °F 36.9 °F 93% 30.20 in 3.0 mi Variable 4.6 mph - 0.13 in Rain Rain
1:51 AM 37.9 °F 31.5 °F 34.9 °F 89% 30.13 in 4.0 mi East 9.2 mph - 0.12 in Rain Light Rain
2:51 AM 36.9 °F 29.1 °F 34.0 °F 89% 30.06 in 2.5 mi East 11.5 mph - 0.12 in Rain Rain
3:00 AM 35.6 °F 29.2 °F 33.8 °F 93% 30.05 in 4.0 mi East 8.1 mph - 0.02 in Rain Rain
3:16 AM 35.6 °F 29.9 °F 33.8 °F 93% 30.04 in 4.0 mi East 6.9 mph - 0.05 in Rain Light Rain
3:31 AM 35.6 °F 30.7 °F 33.8 °F 93% 30.02 in 2.5 mi ENE 5.8 mph - 0.09 in Rain Rain
3:43 AM 35.6 °F 31.7 °F 33.8 °F 93% 30.01 in 3.0 mi NNE 4.6 mph - 0.13 in Rain Rain
3:51 AM 34.9 °F 32.0 °F 32.9 °F 92% 30.02 in 3.0 mi NNE 3.5 mph - 0.15 in Rain Rain
4:26 AM 35.6 °F 32.8 °F 33.8 °F 93% 29.98 in 3.0 mi NNE 3.5 mph - 0.13 in Rain Rain
4:34 AM 35.6 °F 30.7 °F 33.8 °F 93% 29.96 in 2.5 mi ENE 5.8 mph - 0.17 in Rain Heavy Rain
4:51 AM 36.0 °F 31.1 °F 34.0 °F 93% 29.96 in 2.5 mi NE 5.8 mph - 0.23 in Rain Rain
5:51 AM 36.0 °F 31.1 °F 34.9 °F 96% 29.89 in 2.5 mi Variable 5.8 mph - 0.17 in Rain Rain
6:51 AM 37.9 °F 33.5 °F 36.0 °F 93% 29.84 in 2.5 mi NNE 5.8 mph - 0.16 in Rain Heavy Rain
7:27 AM 37.4 °F 29.8 °F 35.6 °F 93% 29.77 in 1.2 mi ENE 11.5 mph - 0.10 in Rain Heavy Rain
7:37 AM 37.4 °F 32.1 °F 37.4 °F 100% 29.78 in 1.8 mi NNW 6.9 mph - 0.12 in Rain Rain
7:51 AM 37.9 °F 29.6 °F 36.9 °F 96% 29.83 in 1.5 mi NW 13.8 mph - 0.16 in Rain Heavy Rain
8:00 AM 37.4 °F 32.8 °F 35.6 °F 93% 29.77 in 1.2 mi North 5.8 mph - 0.05 in Rain Heavy Rain
8:08 AM 37.4 °F 31.4 °F 35.6 °F 93% 29.77 in 1.8 mi North 8.1 mph - 0.06 in Rain Rain
8:10 AM 37.4 °F 31.4 °F 35.6 °F 93% 29.77 in 2.0 mi North 8.1 mph - 0.06 in Rain Rain
8:17 AM 37.4 °F 29.8 °F 35.6 °F 93% 29.77 in 3.0 mi NW 11.5 mph - 0.07 in Rain Rain
8:38 AM 37.4 °F 30.3 °F 35.6 °F 93% 29.74 in 2.5 mi North 10.4 mph - 0.08 in Rain Rain
8:51 AM 37.9 °F 30.9 °F 36.0 °F 93% 29.74 in 2.0 mi NNW 10.4 mph - 0.09 in Rain Rain
9:08 AM 37.4 °F 30.3 °F 35.6 °F 93% 29.73 in 3.0 mi North 10.4 mph - 0.01 in Rain Light Rain
9:21 AM 37.4 °F 29.3 °F 35.6 °F 93% 29.74 in 4.0 mi NNW 12.7 mph - 0.02 in Rain Light Rain
9:51 AM 36.9 °F 29.6 °F 34.9 °F 93% 29.74 in 3.0 mi NNW 10.4 mph - 0.02 in Rain Light Rain
9:54 AM 37.4 °F 30.3 °F 35.6 °F 93% 29.72 in 2.5 mi NNW 10.4 mph - 0.00 in Rain Light Rain
10:03 AM 37.4 °F 30.3 °F 35.6 °F 93% 29.72 in 1.5 mi NNW 10.4 mph - 0.00 in Rain Light Rain
10:38 AM 37.4 °F 30.3 °F 35.6 °F 93% 29.69 in 2.5 mi North 10.4 mph - 0.00 in   Overcast
10:51 AM 36.9 °F 29.1 °F 34.9 °F 93% 29.71 in 3.0 mi North 11.5 mph - 0.00 in   Overcast
11:51 AM 36.9 °F 29.6 °F 34.0 °F 89% 29.69 in 6.0 mi North 10.4 mph - N/A   Overcast
12:51 PM 36.0 °F 28.5 °F 32.9 °F 89% 29.70 in 3.0 mi NNW 10.4 mph - 0.00 in   Overcast
1:05 PM 35.6 °F 28.0 °F 33.8 °F 93% 29.68 in 5.0 mi North 10.4 mph - 0.00 in   Overcast
1:51 PM 34.9 °F 26.2 °F 32.0 °F 89% 29.71 in 10.0 mi North 12.7 mph - 0.00 in   Overcast
1:58 PM 35.6 °F 27.5 °F 32.0 °F 87% 29.70 in 7.0 mi North 11.5 mph - N/A   Overcast
2:27 PM 35.6 °F 28.6 °F 32.0 °F 87% 29.72 in 7.0 mi North 9.2 mph - N/A   Overcast
3:10 PM 35.6 °F 28.0 °F 33.8 °F 93% 29.75 in 1.8 mi North 10.4 mph - 0.00 in   Overcast
3:28 PM 35.6 °F 28.6 °F 33.8 °F 93% 29.77 in 1.2 mi NNW 9.2 mph - 0.00 in   Overcast
3:35 PM 35.6 °F 29.2 °F 33.8 °F 93% 29.77 in 1.8 mi NNW 8.1 mph - 0.00 in   Overcast
3:42 PM 35.6 °F 27.5 °F 33.8 °F 93% 29.77 in 2.5 mi NNW 11.5 mph - 0.00 in   Overcast
3:51 PM 36.0 °F 29.6 °F 32.9 °F 89% 29.78 in 2.5 mi North 8.1 mph - 0.00 in   Overcast
3:58 PM 35.6 °F 29.2 °F 33.8 °F 93% 29.78 in 3.0 mi North 8.1 mph - N/A   Overcast
4:09 PM 35.6 °F 29.2 °F 33.8 °F 93% 29.78 in 10.0 mi North 8.1 mph - N/A   Overcast
4:16 PM 35.6 °F 28.6 °F 33.8 °F 93% 29.78 in 10.0 mi North 9.2 mph - N/A   Overcast
4:51 PM 36.0 °F 29.0 °F 32.0 °F 86% 29.82 in 10.0 mi North 9.2 mph - N/A   Overcast
5:51 PM 36.0 °F 28.5 °F 30.0 °F 79% 29.85 in 10.0 mi North 10.4 mph - 0.00 in   Overcast
6:51 PM 34.9 °F 27.7 °F 30.0 °F 82% 29.87 in 10.0 mi NNW 9.2 mph - 0.00 in   Mostly Cloudy
7:01 PM 35.6 °F 28.6 °F 30.2 °F 81% 29.87 in 10.0 mi North 9.2 mph - N/A   Scattered Clouds
7:51 PM 36.0 °F 29.0 °F 30.0 °F 79% 29.90 in 10.0 mi North 9.2 mph - N/A   Overcast
8:51 PM 36.0 °F 28.5 °F 29.1 °F 76% 29.94 in 10.0 mi North 10.4 mph - N/A   Overcast
9:51 PM 36.0 °F 32.1 °F 31.1 °F 82% 29.96 in 10.0 mi NNW 4.6 mph - N/A   Overcast
10:51 PM 36.0 °F 32.1 °F 32.0 °F 86% 29.96 in 10.0 mi North 4.6 mph - N/A   Overcast
11:51 PM 32.9 °F 28.5 °F 31.1 °F 93% 29.98 in 10.0 mi NNW 4.6 mph - N/A   Clear